Change the Weather History Date:

Friday, October 26, 2012

  Actual Average Record
Temperature  
Mean Temperature 63 °F -  
Max Temperature 71 °F 70 °F 83 °F (1978)
Min Temperature 55 °F 45 °F 24 °F (1980)
Degree Days  
Heating Degree Days 2    
Growing Degree Days 13 (Base 50)    
Moisture  
Dew Point 60 °F    
Average Humidity 85    
Maximum Humidity 100    
Minimum Humidity 68    
Precipitation  
Precipitation 0.00 in - - ()
Sea Level Pressure  
Sea Level Pressure 30.02 in    
Wind  
Wind Speed 6 mph (NNE)    
Max Wind Speed 13 mph    
Max Gust Speed 20 mph    
Visibility 8 miles    
Events      
Averages and records for this station are not official NWS values.
T = Trace of Precipitation, MM = Missing Value Source: NWS Daily Summary

Daily Weather History Graph

Daily Weather History Graph

Search for Another Location

Airport or City:

Trip Planner

Search our weather history database for the weather conditions in past years. The results will help you decide how hot, cold, wet, or windy it might be!

Date:

Astronomy

Oct. 26, 2012 Rise Set
Actual Time 7:31 AM EDT 6:25 PM EDT
Civil Twilight 7:05 AM EDT 6:51 PM EDT
Nautical Twilight 6:35 AM EDT 7:21 PM EDT
Astronomical Twilight 6:05 AM EDT 7:51 PM EDT
Moon 4:36 PM EDT (10/26) 4:31 AM EDT (10/26)
Length of Visible Light 11h 46m
Length of Day
10h 54m
Waxing Gibbous, 91% of the Moon is Illuminated
Oct 26
Waxing Gibbous
Oct 29
Full
Nov 6
Last Quarter
Nov 13
New
Nov 20
First Quarter

Hourly Weather History & Observations

Time (EDT) Temp. Dew Point Humidity Pressure Visibility Wind Dir Wind Speed Gust Speed Precip Events Conditions
12:15 AM 60.8 °F 55.4 °F 82% 30.09 in 10.0 mi NE 3.5 mph - N/A   Clear
12:35 AM 59.0 °F 55.4 °F 88% 30.08 in 10.0 mi NE 3.5 mph - N/A   Clear
12:55 AM 59.0 °F 57.2 °F 94% 30.08 in 10.0 mi NE 4.6 mph - N/A   Clear
1:15 AM 60.8 °F 57.2 °F 88% 30.08 in 10.0 mi NE 3.5 mph - N/A   Clear
1:55 AM 60.8 °F 57.2 °F 88% 30.08 in 10.0 mi East 4.6 mph - N/A   Clear
2:15 AM 60.8 °F 57.2 °F 88% 30.08 in 10.0 mi ENE 4.6 mph - N/A   Clear
2:35 AM 60.8 °F 57.2 °F 88% 30.07 in 10.0 mi ENE 5.8 mph - N/A   Clear
2:55 AM 60.8 °F 59.0 °F 94% 30.08 in 10.0 mi NE 5.8 mph - N/A   Clear
3:15 AM 59.0 °F 57.2 °F 94% 30.08 in 10.0 mi NE 4.6 mph - N/A   Clear
3:35 AM 59.0 °F 57.2 °F 94% 30.07 in 10.0 mi NNE 4.6 mph - N/A   Clear
3:55 AM 59.0 °F 57.2 °F 94% 30.07 in 10.0 mi NE 4.6 mph - N/A   Clear
4:15 AM 59.0 °F 57.2 °F 94% 30.07 in 10.0 mi NNE 5.8 mph - N/A   Clear
4:35 AM 59.0 °F 59.0 °F 100% 30.07 in 7.0 mi NNE 3.5 mph - N/A   Clear
4:55 AM 59.0 °F 59.0 °F 100% 30.06 in 5.0 mi NNE 3.5 mph - N/A   Clear
5:15 AM 59.0 °F 57.2 °F 94% 30.06 in 5.0 mi NNE 3.5 mph - N/A   Clear
5:35 AM 59.0 °F 59.0 °F 100% 30.06 in 7.0 mi NNE 4.6 mph - N/A   Clear
5:55 AM 57.2 °F 57.2 °F 100% 30.06 in 5.0 mi NNE 3.5 mph - N/A   Clear
6:15 AM 57.2 °F 57.2 °F 100% 30.07 in 3.0 mi NE 6.9 mph - N/A   Scattered Clouds
6:35 AM 55.4 °F 55.4 °F 100% 30.07 in 1.2 mi NNE 5.8 mph - N/A   Overcast
6:55 AM 55.4 °F 55.4 °F 100% 30.08 in 0.8 mi NE 6.9 mph - N/A   Overcast
7:15 AM 55.4 °F 55.4 °F 100% 30.08 in 0.8 mi NNE 4.6 mph - N/A   Overcast
7:35 AM 55.4 °F 55.4 °F 100% 30.09 in 1.2 mi NNE 8.1 mph - N/A   Overcast
8:15 AM 57.2 °F 57.2 °F 100% 30.10 in 1.2 mi NNE 6.9 mph - N/A   Overcast
8:35 AM 59.0 °F 59.0 °F 100% 30.10 in 1.5 mi NNE 8.1 mph - N/A   Overcast
9:15 AM 59.0 °F 59.0 °F 100% 30.12 in 3.0 mi NNE 6.9 mph - N/A   Overcast
9:55 AM 60.8 °F 59.0 °F 94% 30.11 in 4.0 mi North 5.8 mph - N/A   Overcast
10:15 AM 62.6 °F 59.0 °F 88% 30.10 in 5.0 mi North 8.1 mph - N/A   Overcast
10:55 AM 68.0 °F 59.0 °F 73% 30.10 in 10.0 mi NNE 8.1 mph - N/A   Scattered Clouds
11:15 AM 68.0 °F 59.0 °F 73% 30.09 in 10.0 mi North 4.6 mph - N/A   Mostly Cloudy
11:35 AM 68.0 °F 59.0 °F 73% 30.08 in 10.0 mi North 6.9 mph - N/A   Overcast
12:15 PM 69.8 °F 59.0 °F 68% 30.07 in 10.0 mi North 5.8 mph - N/A   Overcast
12:35 PM 69.8 °F 60.8 °F 73% 30.05 in 10.0 mi North 8.1 mph - N/A   Overcast
12:55 PM 69.8 °F 60.8 °F 73% 30.04 in 10.0 mi North 4.6 mph - N/A   Overcast
1:15 PM 69.8 °F 60.8 °F 73% 30.03 in 10.0 mi NNE 10.4 mph - N/A   Overcast
1:35 PM 69.8 °F 60.8 °F 73% 30.02 in 10.0 mi NE 10.4 mph 17.3 mph N/A   Overcast
2:15 PM 69.8 °F 60.8 °F 73% 30.01 in 10.0 mi NE 10.4 mph - N/A   Overcast
2:35 PM 69.8 °F 60.8 °F 73% 30.00 in 10.0 mi NE 12.7 mph 17.3 mph N/A   Overcast
2:55 PM 71.6 °F 60.8 °F 69% 29.99 in 10.0 mi NNE 8.1 mph - N/A   Overcast
3:15 PM 69.8 °F 60.8 °F 73% 29.98 in 10.0 mi NNE 8.1 mph - N/A   Overcast
3:35 PM 71.6 °F 60.8 °F 69% 29.97 in 10.0 mi NNE 9.2 mph - N/A   Mostly Cloudy
3:55 PM 71.6 °F 60.8 °F 69% 29.97 in 10.0 mi NNE 9.2 mph 17.3 mph N/A   Overcast
4:15 PM 71.6 °F 60.8 °F 69% 29.97 in 10.0 mi North 5.8 mph - N/A   Overcast
4:35 PM 71.6 °F 60.8 °F 69% 29.96 in 10.0 mi North 6.9 mph - N/A   Overcast
4:55 PM 71.6 °F 60.8 °F 69% 29.96 in 10.0 mi North 6.9 mph - N/A   Overcast
5:15 PM 69.8 °F 60.8 °F 73% 29.96 in 10.0 mi North 6.9 mph - N/A   Overcast
5:35 PM 69.8 °F 60.8 °F 73% 29.96 in 10.0 mi North 9.2 mph 16.1 mph N/A   Scattered Clouds
5:55 PM 69.8 °F 60.8 °F 73% 29.96 in 10.0 mi North 6.9 mph 19.6 mph N/A   Mostly Cloudy
6:15 PM 69.8 °F 60.8 °F 73% 29.96 in 10.0 mi North 6.9 mph - N/A   Overcast
6:35 PM 69.8 °F 60.8 °F 73% 29.96 in 10.0 mi North 6.9 mph - N/A   Overcast
6:55 PM 68.0 °F 60.8 °F 78% 29.96 in 10.0 mi North 6.9 mph - N/A   Scattered Clouds
7:15 PM 68.0 °F 60.8 °F 78% 29.97 in 10.0 mi North 6.9 mph 17.3 mph N/A   Clear
7:35 PM 68.0 °F 60.8 °F 78% 29.97 in 10.0 mi North 8.1 mph 16.1 mph N/A   Scattered Clouds
7:55 PM 68.0 °F 60.8 °F 78% 29.97 in 10.0 mi NNE 9.2 mph 16.1 mph N/A   Scattered Clouds
8:15 PM 66.2 °F 62.6 °F 88% 29.96 in 5.0 mi NNE 11.5 mph 17.3 mph N/A   Overcast
8:35 PM 66.2 °F 62.6 °F 88% 29.95 in 10.0 mi NNE 10.4 mph - N/A   Mostly Cloudy
8:55 PM 66.2 °F 62.6 °F 88% 29.95 in 7.0 mi NNE 6.9 mph - N/A   Scattered Clouds
9:15 PM 66.2 °F 64.4 °F 94% 29.95 in 5.0 mi North 5.8 mph - N/A   Overcast
9:35 PM 66.2 °F 62.6 °F 88% 29.95 in 10.0 mi NNE 4.6 mph - N/A   Overcast
9:55 PM 66.2 °F 62.6 °F 88% 29.95 in 10.0 mi North 5.8 mph - N/A   Overcast
10:15 PM 66.2 °F 62.6 °F 88% 29.94 in 10.0 mi North 8.1 mph - N/A   Overcast
10:35 PM 66.2 °F 62.6 °F 88% 29.93 in 10.0 mi North 5.8 mph - N/A   Overcast
10:55 PM 66.2 °F 62.6 °F 88% 29.93 in 10.0 mi North 9.2 mph - N/A   Overcast
11:15 PM 66.2 °F 62.6 °F 88% 29.92 in 10.0 mi NNE 8.1 mph - N/A   Overcast
11:35 PM 66.2 °F 62.6 °F 88% 29.92 in 10.0 mi NNE 8.1 mph 16.1 mph N/A   Overcast